EUTELSAT 9B

Last updated on Sun Jun 21 2026 00:03:06 GMT+0000 (Coordinated Universal Time)

1 41310U 16005A 26171.32244802 .00000057 00000+0 00000+0 0 9993 2 41310 0.0887 76.7287 0001691 335.6230 341.2375 1.00272797 38146
UTC large
Height (km)
Speed (km/s)
/
Latitude / Longitude
Inclination (degrees)
Orbital Period (minutes)
Azimuth
Elevation
Range (km)
Doppler Factor

Next 0 passes for location: London (51.5072 / 0.1276)

No passes found over London.
EUTELSAT 9B